Skip Page Navigation
NASA JPL Caltech
NASA Logo - Jet Propulsion Laboratory + View the NASA Portal
+ Center for Near-Earth Object Studies
JPL Home Earth Solar System Stars & Galaxies Technology
JPL Solar System Dynamics
BODIES ORBITS EPHEMERIDES TOOLS PHYSICAL DATA DISCOVERY FAQ SITE MAP
IMPORTANT: The SSD Announcement email list is now available. Major changes are coming in the near future, including possible hostname and/or URL changes. To be notified of such changes, subscribe to this email list.

Please visit this page for more details.


JPL Small-Body Database Browser
Search: [ help ]  
441264 (2007 VP314)
Classification: Main-belt Asteroid          SPK-ID: 2441264
Ephemeris | Orbit Diagram | Orbital Elements | Mission Design | Physical Parameters | Discovery Circumstances ]

[ show orbit diagram ]
Orbital Elements at Epoch 2458600.5 (2019-Apr-27.0) TDB
Reference: JPL 13 (heliocentric ecliptic J2000)
 Element Value Uncertainty (1-sigma)   Units 
e .1289104000287227 1.0162e-07  
a 2.680246688197543 5.8354e-08 au
q 2.334735015446339 2.9479e-07 au
i 7.068266334767048 1.1362e-05 deg
node 94.35695834977564 7.3111e-05 deg
peri 319.2085955131473 8.749e-05 deg
M 219.1928714142211 5.8232e-05 deg
tp 2459227.377554934101
(2021-Jan-12.87755493)
0.00027376 TDB
period 1602.730785315289
4.39
5.2341e-05
1.433e-07
d
yr
n .2246166376152691 7.3355e-09 deg/d
Q 3.025758360948747 6.5876e-08 au
  Orbit Determination Parameters
   # obs. used (total)      65  
   data-arc span      5227 days (14.31 yr)  
   first obs. used      2003-12-29  
   last obs. used      2018-04-21  
   planetary ephem.      DE431  
   SB-pert. ephem.      SB431-N16  
   condition code      0  
   norm. resid. RMS      .63843  
   source      ORB  
   producer      Otto Matic  
   solution date      2018-May-07 07:03:17  

Additional Information
 Earth MOID = 1.35141 au 
 Jupiter MOID = 2.30778 au 
 T_jup = 3.354 
[ show covariance matrix ]

Ephemeris | Orbit Diagram | Orbital Elements | Mission Design | Physical Parameters | Discovery Circumstances ]

Physical Parameter Table
Parameter Symbol Value Units Sigma Reference Notes
absolute magnitude H 17.0   n/a MPO450443  

441264 (2007 VP314)          Discovered 2007-Nov-02 by Mt. Lemmon Survey at Mount Lemmon
Reference: Last Updated: 2015-09-02
Ephemeris | Orbit Diagram | Orbital Elements | Mission Design | Physical Parameters | Discovery Circumstances ]
ABOUT SSD CREDITS/AWARDS PRIVACY/COPYRIGHT GLOSSARY LINKS
FirstGov
(server date/time)  
NASA Home Page
Site Manager:   Ryan S. Park
Webmaster  Alan B. Chamberlin